Weather History for New Orleans Lakefront, LA

Change the Weather History Date:

Monday, July 8, 2013

  Actual Average Record
Temperature  
Mean Temperature 82 °F 83 °F  
Max Temperature 88 °F 91 °F 98 °F (2000)
Min Temperature 75 °F 75 °F 64 °F (1972)
Degree Days  
Heating Degree Days 0 0  
Month to date heating degree days 0 0  
Since 1 June heating degree days 0 0  
Since 1 July heating degree days 0 0  
Cooling Degree Days 17 18  
Month to date cooling degree days 125 144  
Year to date cooling degree days 1159 1258  
Since 1 June cooling degree days 666 639  
Growing Degree Days 32 (Base 50)    
Moisture  
Dew Point 73 °F    
Average Humidity 84    
Maximum Humidity 94    
Minimum Humidity 74    
Precipitation  
Precipitation 0.45 in 0.22 in 4.32 in (1996)
Month to date precipitation 1.91 1.75  
Year to date precipitation 41.03 34.05  
Snow  
Snow 0.00 in - - ()
Month to date snowfall 0.0  
Since 1 June snowfall 0.0  
Since 1 July snowfall 0.0  
Snow Depth 0.00 in    
Sea Level Pressure  
Sea Level Pressure 30.12 in    
Wind  
Wind Speed 4 mph (SE)    
Max Wind Speed 20 mph    
Max Gust Speed 24 mph    
Visibility 10 miles    
Events      
T = Trace of Precipitation, MM = Missing Value Source: NWS Daily Summary

Daily Weather History Graph

Daily Weather History Graph

Search for Another Location

Airport:

Trip Planner

Search our weather history database for the weather conditions in past years. The results will help you decide how hot, cold, wet, or windy it might be!

Date:

Astronomy

Jul. 08, 2013 Rise Set
Actual Time 6:05 AM CDT 8:04 PM CDT
Civil Twilight 5:38 AM CDT 8:31 PM CDT
Nautical Twilight 5:05 AM CDT 9:04 PM CDT
Astronomical Twilight 4:30 AM CDT 9:39 PM CDT
Moon 6:28 AM CDT (7/8) 8:15 PM CDT (7/8)
Length of Visible Light 14h 53m
Length of Day
13h 58m
New Moon, 0% of the Moon is Illuminated
Jul 8
New Moon
Jul 15
First Quarter
Jul 22
Full
Jul 29
Last Quarter
Aug 6
New

Hourly Weather History & Observations

Time (CDT) Temp. Heat Index Dew Point Humidity Pressure Visibility Wind Dir Wind Speed Gust Speed Precip Events Conditions
12:53 AM 77.0 °F - 73.0 °F 88% 30.07 in 10.0 mi East 10.4 mph - N/A   Clear
1:53 AM 77.0 °F - 73.0 °F 88% 30.06 in 10.0 mi East 8.1 mph - N/A   Clear
2:53 AM 77.0 °F - 73.0 °F 88% 30.06 in 10.0 mi SE 3.5 mph - N/A   Clear
3:53 AM 77.0 °F - 73.0 °F 88% 30.06 in 10.0 mi Calm Calm - N/A   Clear
4:53 AM 77.0 °F - 72.0 °F 84% 30.08 in 10.0 mi SSE 3.5 mph - N/A   Clear
5:53 AM 77.0 °F - 72.0 °F 84% 30.10 in 10.0 mi Calm Calm - N/A   Partly Cloudy
6:53 AM 79.0 °F - 73.0 °F 82% 30.12 in 10.0 mi Calm Calm - N/A   Mostly Cloudy
7:53 AM 80.1 °F 84.2 °F 73.0 °F 79% 30.14 in 10.0 mi East 3.5 mph - N/A   Mostly Cloudy
8:53 AM 81.0 °F 85.8 °F 73.0 °F 77% 30.15 in 10.0 mi East 5.8 mph - N/A   Mostly Cloudy
9:53 AM 81.0 °F 86.7 °F 75.0 °F 82% 30.15 in 10.0 mi East 5.8 mph - N/A   Overcast
10:53 AM 82.9 °F 90.2 °F 75.0 °F 77% 30.15 in 10.0 mi ESE 4.6 mph - 0.00 in   Mostly Cloudy
11:26 AM 84.2 °F 92.3 °F 75.2 °F 74% 30.17 in 10.0 mi East 5.8 mph - N/A   Mostly Cloudy
11:53 AM 84.9 °F 92.1 °F 73.9 °F 69% 30.15 in 10.0 mi East 5.8 mph - N/A   Overcast
12:38 PM 87.8 °F 95.6 °F 73.4 °F 62% 30.17 in 10.0 mi East 5.8 mph - N/A   Overcast
12:45 PM 87.8 °F 95.6 °F 73.4 °F 62% 30.16 in 10.0 mi ESE 6.9 mph - N/A   Overcast
12:53 PM 87.1 °F 95.4 °F 73.9 °F 65% 30.14 in 10.0 mi East 5.8 mph - N/A   Mostly Cloudy
1:53 PM 84.0 °F 90.2 °F 73.0 °F 69% 30.13 in 10.0 mi South 15.0 mph - N/A   Mostly Cloudy
2:08 PM 80.6 °F 84.6 °F 71.6 °F 74% 30.15 in 10.0 mi South 10.4 mph 23.0 mph N/A   Overcast
2:53 PM 82.9 °F 87.0 °F 70.0 °F 65% 30.11 in 10.0 mi SSW 9.2 mph - N/A   Scattered Clouds
3:53 PM 84.0 °F 90.2 °F 73.0 °F 69% 30.12 in 10.0 mi SSW 8.1 mph - N/A   Partly Cloudy
4:53 PM 82.9 °F 88.8 °F 73.0 °F 72% 30.12 in 10.0 mi SE 9.2 mph - N/A   Scattered Clouds
5:53 PM 82.0 °F 87.9 °F 73.9 °F 76% 30.11 in 10.0 mi Calm Calm - 0.01 in   Mostly Cloudy
6:53 PM 82.0 °F 87.4 °F 73.0 °F 74% 30.12 in 10.0 mi SSW 3.5 mph - N/A   Clear
7:53 PM 82.0 °F 87.4 °F 73.0 °F 74% 30.13 in 10.0 mi Calm Calm - N/A   Mostly Cloudy
8:53 PM 81.0 °F 86.2 °F 73.9 °F 79% 30.12 in 10.0 mi WSW 3.5 mph - 0.02 in   Clear
9:53 PM 80.1 °F 85.1 °F 75.0 °F 85% 30.13 in 10.0 mi Calm Calm - N/A   Clear
10:53 PM 80.1 °F 85.1 °F 75.0 °F 85% 30.14 in 10.0 mi Calm Calm - N/A   Clear
11:53 PM 79.0 °F - 75.0 °F 88% 30.14 in 10.0 mi SSE 3.5 mph - N/A   Clear